Starlink 30841

operational
NORAD ID: 58208 Int'l Des: 2023-170 Owner: SPXS Country: US Constellation: starlink
LEOCIRCULAR

Über Starlink 30841

Beschreibung wird geladen...

Live-Position

3D-Globus wird geladen...

Nächste Überflüge

Höhenverlauf

Altitude vs Time

uPlot chart will show altitude changes over time

Zweizeiliger Elementsatz

1 58208U 23170C 25348.92089432 .00001843 00000-0 15140-3 0 9995
2 58208 43.0048 296.8964 0001085 240.6159 119.4575 15.02546252117529
Epoch: 14. Dez. 2025 • Age: 15 hours

Aktueller Status

Höhe 568.0 km
Geschwindigkeit 7.58 km/s
Subsatellitenpunkt -34.16°S, 127.23°W
Startdatum 4. Nov. 2023
Alter 2.1 years
Typ internet

Technische Details

Klassifizierung Payload
Masse 730.00 kg
Trockenmasse 700.00 kg
Gesamtmasse 730.00 kg
Länge 0.30 m
Durchmesser 4.10 m
Spannweite 29.00 m
Form Box + pan
Hersteller SPXS
Bus-Typ Starlink V2M
Phasenstatus In Orbit
Besitzer/Staat SPXS/US

Große Konstellationen

Loading constellations...